Hoquiam, WA
on Thursday, January 17, 2013

Thursday
Previous Day Next Day
Daily Summary
 ActualAverageRecord
Temperature
Mean Temperature °F 43°F  
Max Temperature 39°F 47°F 54°F (1977)
Min Temperature 30°F 38°F 26°F (1954)
Degree Days
Heating Degree Days 30 22  
Month to date heating degree days 385  
Cooling Degree Days 0 0  
Month to date cooling degree days 0  
Year to date cooling degree days 0  
Moisture
Dew Point 33°F   
Average Humidity 94    
Maximum Humidity 100    
Minimum Humidity 89    
Precipitation
Precipitation 0.01 in 0.35 in 2.57 in (2005)
Month to date precipitation 5.98  
Year to date precipitation 5.98  
Wind
Wind Speed 10 mph   
Max Wind Speed 15 mph   
Max Gust Speed mph   
Visibility 8 miles   
Events     

Key: T is trace of precipitation, MM is missing value
Source: NWS Daily Summary
Time(PST)TemperatureDew PointHumidity Pressure Visibility Wind DirectionWind SpeedGust SpeedPrecipitationEvents Conditions
12:23 AM 30.2°F 30.2°F 100% 30.48 in 2.5 miles ENE 9.2 mph - N/A   Mostly Cloudy
12:30 AM 30.2°F 30.2°F 100% 30.47 in 3.0 miles ENE 10.4 mph - N/A   Scattered Clouds
12:53 AM 32.0°F 30.9°F 96% 30.49 in 7.0 miles East 9.2 mph - N/A   Clear
1:53 AM 33.1°F 32.0°F 96% 30.47 in 7.0 miles ENE 10.4 mph - N/A   Clear
2:53 AM 34.0°F 33.1°F 96% 30.48 in 10.0 miles NE 8.1 mph - N/A   Clear
3:53 AM 34.0°F 33.1°F 96% 30.45 in 10.0 miles ENE 8.1 mph - N/A   Clear
4:48 AM 33.8°F 32.0°F 93% 30.42 in 10.0 miles NE 11.5 mph - N/A   Partly Cloudy
4:53 AM 34.0°F 32.0°F 92% 30.43 in 10.0 miles ENE 10.4 mph - N/A   Partly Cloudy
5:53 AM 33.1°F 32.0°F 96% 30.42 in 9.0 miles ENE 8.1 mph - N/A   Clear
6:19 AM 33.8°F 32.0°F 93% 30.41 in 9.0 miles ENE 8.1 mph - N/A   Partly Cloudy
6:53 AM 33.1°F 32.0°F 96% 30.41 in 10.0 miles ENE 9.2 mph - N/A   Clear
7:53 AM 33.1°F 32.0°F 96% 30.42 in 9.0 miles ENE 8.1 mph - N/A   Partly Cloudy
8:53 AM 33.8°F 32.0°F 93% 30.41 in 8.0 miles ENE 10.4 mph - N/A   Scattered Clouds
9:04 AM 33.8°F 32.0°F 93% 30.41 in 9.0 miles ENE 10.4 mph - N/A   Mostly Cloudy
9:26 AM 33.8°F 32.0°F 93% 30.41 in 9.0 miles ENE 11.5 mph - N/A   Scattered Clouds
9:53 AM 34.0°F 33.1°F 96% 30.43 in 6.0 miles ENE 11.5 mph - N/A   Clear
10:53 AM 37.0°F 35.1°F 93% 30.42 in 9.0 miles ENE 13.8 mph - 0.01 in   Clear
11:53 AM 37.9°F 36.0°F 93% 30.39 in 8.0 miles East 15.0 mph - N/A   Clear
12:53 PM 39.9°F 37.0°F 89% 30.37 in 9.0 miles East 12.7 mph - N/A   Clear
1:53 PM 39.9°F 37.0°F 89% 30.34 in 8.0 miles East 12.7 mph - N/A   Clear
2:53 PM 39.9°F 37.0°F 89% 30.32 in 6.0 miles East 11.5 mph - N/A   Clear
3:53 PM 39.0°F 37.0°F 93% 30.31 in 6.0 miles ENE 11.5 mph - N/A   Clear
4:53 PM 36.0°F 34.0°F 93% 30.31 in 4.0 miles ENE 10.4 mph - N/A   Clear
5:53 PM 35.1°F 34.0°F 96% 30.31 in 7.0 miles ENE 6.9 mph - N/A   Clear
6:17 PM 35.6°F 33.8°F 93% 30.30 in 10.0 miles ENE 8.1 mph - N/A   Scattered Clouds
6:28 PM 35.6°F 33.8°F 93% 30.30 in 10.0 miles ENE 10.4 mph - N/A   Mostly Cloudy
6:53 PM 36.0°F 34.0°F 93% 30.30 in 8.0 miles NE 12.7 mph - N/A   Overcast
7:53 PM 34.0°F 33.1°F 96% 30.31 in 10.0 miles ENE 10.4 mph - N/A   Overcast
8:53 PM 33.1°F 32.0°F 96% 30.30 in 10.0 miles NE 10.4 mph - N/A   Overcast
9:53 PM 33.1°F 32.0°F 96% 30.30 in 10.0 miles NE 10.4 mph - N/A   Overcast
10:14 PM 32.0°F 30.2°F 93% 30.29 in 10.0 miles NE 6.9 mph - N/A   Scattered Clouds
10:53 PM 32.0°F 30.9°F 96% 30.30 in 10.0 miles ENE 6.9 mph - N/A   Clear
11:07 PM 32.0°F 30.2°F 93% 30.28 in 10.0 miles ENE 8.1 mph - N/A   Partly Cloudy
11:20 PM 32.0°F 30.2°F 93% 30.28 in 8.0 miles ENE 11.5 mph - N/A   Mostly Cloudy
11:53 PM 32.0°F 30.9°F 96% 30.29 in 10.0 miles NE 10.4 mph - N/A   Overcast
Moon Phase
Jan. 17 Jan. 18 Jan. 26 Feb. 03 Feb. 10
Sunrise:07:55 AM (PST) Moon Rise:10:36 AM (PST)1/17
Sunset:04:57 PM (PST) Moon Set:No Moon Set/

Copyright © 2014 The Weather Underground, Inc.